When you browse on this site, cookies collect data to enhance your experience and personalize the content and advertising you see.
Visit our Privacy Policy to learn more. By continuing to use the site, you agree to this use of cookies and data.
  • In Sweden
  • List of Countries
  • For 7 days
  • Water Temperature
  • Weather Map
  • Weather Widgets
  • user-avatar
    Login

    Hourly Weather Bingley

    Today, 18 October, Friday

    Time Temperature Precipitation Wind Pressure Humidity
    00:00 +8°C° 0.1 mm 2 mps 731 mmHg 90%
    01:00 +8°C° 0.2 mm 2 mps 730 mmHg 90%
    02:00 +8°C° 0.2 mm 2 mps 730 mmHg 91%
    03:00 +8°C° 0.2 mm 2 mps 729 mmHg 91%
    04:00 +9°C° 0.8 mm 1 mps 729 mmHg 92%
    05:00 +9°C° 0.8 mm 1 mps 728 mmHg 93%
    06:00 +8°C° 0.8 mm 0 mps 728 mmHg 95%
    07:00 +9°C° 0.5 mm 1 mps 728 mmHg 92%
    08:00 +9°C° 0.5 mm 2 mps 728 mmHg 90%
    09:00 +9°C° 0.5 mm 3 mps 728 mmHg 88%
    10:00 +10°C° 0 mm 4 mps 728 mmHg 83%
    11:00 +10°C° 0 mm 4 mps 728 mmHg 79%
    12:00 +11°C° 0 mm 4 mps 728 mmHg 75%
    13:00 +11°C° 0.3 mm 4 mps 728 mmHg 74%
    14:00 +12°C° 0.3 mm 4 mps 728 mmHg 74%
    15:00 +12°C° 0.3 mm 4 mps 728 mmHg 73%
    16:00 +11°C° 0.3 mm 4 mps 729 mmHg 76%
    17:00 +9°C° 0.3 mm 3 mps 729 mmHg 80%
    18:00 +8°C° 0.3 mm 3 mps 729 mmHg 84%
    19:00 +8°C° 0.1 mm 3 mps 729 mmHg 85%
    20:00 +8°C° 0.1 mm 2 mps 729 mmHg 87%
    21:00 +7°C° 0.1 mm 2 mps 729 mmHg 88%
    22:00 +7°C° 0 mm 2 mps 729 mmHg 89%
    23:00 +7°C° 0 mm 2 mps 729 mmHg 89%

    Tomorrow, 19 October, Saturday

    Time Temperature Precipitation Wind Pressure Humidity
    00:00 +8°C° 0 mm 1 mps 729 mmHg 90%
    01:00 +7°C° 0 mm 1 mps 729 mmHg 91%
    02:00 +7°C° 0 mm 1 mps 729 mmHg 91%
    03:00 +7°C° 0 mm 1 mps 729 mmHg 92%
    04:00 +7°C° 0 mm 1 mps 729 mmHg 93%
    05:00 +7°C° 0 mm 1 mps 729 mmHg 93%
    06:00 +7°C° 0 mm 1 mps 730 mmHg 93%
    07:00 +7°C° 0 mm 2 mps 730 mmHg 92%
    08:00 +7°C° 0 mm 2 mps 730 mmHg 92%
    09:00 +8°C° 0 mm 2 mps 730 mmHg 91%
    10:00 +8°C° 0 mm 2 mps 731 mmHg 90%
    11:00 +8°C° 0 mm 3 mps 731 mmHg 89%
    12:00 +9°C° 0 mm 3 mps 731 mmHg 88%
    13:00 +9°C° 0.2 mm 3 mps 732 mmHg 87%
    14:00 +9°C° 0.2 mm 3 mps 732 mmHg 86%
    15:00 +10°C° 0.2 mm 3 mps 732 mmHg 86%
    16:00 +8°C° 0.2 mm 4 mps 733 mmHg 87%
    17:00 +7°C° 0.2 mm 4 mps 733 mmHg 89%
    18:00 +7°C° 0.2 mm 5 mps 734 mmHg 90%
    19:00 +7°C° 0 mm 4 mps 735 mmHg 89%
    20:00 +7°C° 0 mm 4 mps 735 mmHg 88%
    21:00 +8°C° 0 mm 3 mps 736 mmHg 86%
    22:00 +7°C° 0 mm 3 mps 737 mmHg 87%
    23:00 +5°C° 0 mm 3 mps 737 mmHg 88%

    Day after tomorrow, 20 October, Sunday

    Time Temperature Precipitation Wind Pressure Humidity
    00:00 +5°C° 0 mm 3 mps 738 mmHg 89%
    01:00 +5°C° 0 mm 3 mps 738 mmHg 89%
    02:00 +4°C° 0 mm 3 mps 739 mmHg 88%
    03:00 +4°C° 0 mm 3 mps 739 mmHg 88%
    04:00 +4°C° 0 mm 3 mps 740 mmHg 87%
    05:00 +3°C° 0 mm 3 mps 740 mmHg 87%
    06:00 +4°C° 0 mm 2 mps 740 mmHg 86%
    07:00 +4°C° 0 mm 3 mps 741 mmHg 83%
    08:00 +4°C° 0 mm 3 mps 742 mmHg 80%
    09:00 +5°C° 0 mm 3 mps 742 mmHg 77%
    10:00 +7°C° 0 mm 3 mps 743 mmHg 74%
    11:00 +8°C° 0 mm 3 mps 743 mmHg 72%
    12:00 +9°C° 0 mm 3 mps 744 mmHg 70%
    13:00 +8°C° 0 mm 4 mps 744 mmHg 70%
    14:00 +8°C° 0 mm 4 mps 744 mmHg 71%
    15:00 +8°C° 0 mm 4 mps 744 mmHg 72%
    16:00 +8°C° 0 mm 3 mps 745 mmHg 75%
    17:00 +7°C° 0 mm 3 mps 745 mmHg 78%
    18:00 +6°C° 0 mm 2 mps 746 mmHg 81%
    19:00 +5°C° 0 mm 2 mps 746 mmHg 81%
    20:00 +4°C° 0 mm 3 mps 747 mmHg 82%
    21:00 +4°C° 0 mm 3 mps 747 mmHg 83%
    22:00 +3°C° 0 mm 3 mps 747 mmHg 83%
    23:00 +3°C° 0 mm 3 mps 748 mmHg 83%

    21 October, Monday

    Time Temperature Precipitation Wind Pressure Humidity
    00:00 +2°C° 0 mm 3 mps 748 mmHg 83%
    01:00 +3°C° 0 mm 2 mps 748 mmHg 83%
    02:00 +3°C° 0 mm 2 mps 749 mmHg 82%
    03:00 +3°C° 0 mm 2 mps 749 mmHg 82%
    04:00 +3°C° 0 mm 2 mps 749 mmHg 81%
    05:00 +4°C° 0 mm 2 mps 750 mmHg 80%
    06:00 +4°C° 0 mm 2 mps 750 mmHg 79%
    07:00 +5°C° 0 mm 2 mps 751 mmHg 78%
    08:00 +5°C° 0 mm 2 mps 751 mmHg 77%
    09:00 +6°C° 0 mm 2 mps 751 mmHg 76%
    10:00 +7°C° 0 mm 2 mps 752 mmHg 74%
    11:00 +8°C° 0 mm 2 mps 752 mmHg 72%
    12:00 +10°C° 0 mm 1 mps 752 mmHg 71%
    13:00 +10°C° 0 mm 1 mps 752 mmHg 71%
    14:00 +10°C° 0 mm 1 mps 752 mmHg 71%
    15:00 +10°C° 0 mm 1 mps 752 mmHg 72%
    16:00 +9°C° 0 mm 1 mps 752 mmHg 74%
    17:00 +8°C° 0 mm 1 mps 752 mmHg 77%
    18:00 +7°C° 0 mm 1 mps 752 mmHg 80%
    19:00 +7°C° 0 mm 1 mps 753 mmHg 80%
    20:00 +6°C° 0 mm 1 mps 753 mmHg 81%
    21:00 +6°C° 0 mm 1 mps 753 mmHg 81%
    22:00 +5°C° 0 mm 1 mps 753 mmHg 82%
    23:00 +5°C° 0 mm 1 mps 753 mmHg 82%

    22 October, Tuesday

    Time Temperature Precipitation Wind Pressure Humidity
    00:00 +5°C° 0 mm 1 mps 753 mmHg 83%
    01:00 +5°C° 0 mm 1 mps 752 mmHg 83%
    02:00 +4°C° 0 mm 1 mps 752 mmHg 83%
    03:00 +4°C° 0 mm 1 mps 752 mmHg 83%
    04:00 +4°C° 0 mm 1 mps 751 mmHg 83%
    05:00 +4°C° 0 mm 1 mps 751 mmHg 83%
    06:00 +3°C° 0 mm 0 mps 751 mmHg 83%
    07:00 +4°C° 0 mm 0 mps 751 mmHg 81%
    08:00 +6°C° 0 mm 1 mps 751 mmHg 78%
    09:00 +7°C° 0 mm 1 mps 751 mmHg 76%
    10:00 +9°C° 0 mm 1 mps 751 mmHg 74%
    11:00 +9°C° 0 mm 2 mps 750 mmHg 72%
    12:00 +10°C° 0 mm 2 mps 750 mmHg 70%
    13:00 +10°C° 0 mm 2 mps 750 mmHg 71%
    14:00 +10°C° 0 mm 2 mps 749 mmHg 71%
    15:00 +10°C° 0 mm 2 mps 748 mmHg 71%
    16:00 +9°C° 0 mm 2 mps 748 mmHg 75%
    17:00 +9°C° 0 mm 1 mps 748 mmHg 79%
    18:00 +8°C° 0 mm 1 mps 747 mmHg 83%
    19:00 +8°C° 0 mm 1 mps 747 mmHg 83%
    20:00 +8°C° 0 mm 1 mps 747 mmHg 83%
    21:00 +8°C° 0 mm 1 mps 747 mmHg 83%
    22:00 +7°C° 0 mm 0 mps 746 mmHg 84%
    23:00 +7°C° 0 mm 0 mps 746 mmHg 84%

    23 October, Wednesday

    Time Temperature Precipitation Wind Pressure Humidity
    00:00 +7°C° 0 mm 0 mps 745 mmHg 84%
    01:00 +7°C° 0 mm 0 mps 745 mmHg 85%
    02:00 +7°C° 0 mm 0 mps 744 mmHg 86%
    03:00 +8°C° 0 mm 1 mps 744 mmHg 86%
    04:00 +8°C° 0 mm 1 mps 744 mmHg 88%
    05:00 +7°C° 0 mm 1 mps 743 mmHg 89%
    06:00 +6°C° 0 mm 1 mps 743 mmHg 91%
    07:00 +7°C° 0 mm 1 mps 743 mmHg 88%
    08:00 +8°C° 0 mm 1 mps 743 mmHg 86%
    09:00 +9°C° 0 mm 1 mps 742 mmHg 83%
    10:00 +10°C° 0 mm 1 mps 742 mmHg 78%
    11:00 +11°C° 0 mm 1 mps 742 mmHg 73%
    12:00 +12°C° 0 mm 2 mps 742 mmHg 69%
    13:00 +12°C° 0 mm 2 mps 741 mmHg 70%
    14:00 +12°C° 0 mm 2 mps 741 mmHg 71%
    15:00 +12°C° 0 mm 2 mps 740 mmHg 72%
    16:00 +11°C° 0 mm 1 mps 740 mmHg 76%
    17:00 +10°C° 0 mm 1 mps 740 mmHg 81%
    18:00 +9°C° 0 mm 1 mps 739 mmHg 85%
    19:00 +9°C° 0 mm 1 mps 739 mmHg 86%
    20:00 +9°C° 0 mm 1 mps 739 mmHg 88%
    21:00 +9°C° 0 mm 1 mps 739 mmHg 89%
    22:00 +9°C° 0 mm 1 mps 739 mmHg 90%
    23:00 +9°C° 0 mm 1 mps 739 mmHg 90%
    Show more